Location: Unspecified
(48.7670°N, 0.0000°E)
Time: 07:12:24
(UTC+00:00)

Vanguard 2 Rocket - Pass Details

Date: 25 June 2019
Orbit: 554 x 3326 km, 32.9° (Epoch: 19 July)

Event Time Altitude Azimuth Distance (km) Brightness Sun altitude
Rises 01:05:39 0° 262° (W) 4,927 10.4 -16.5°
Reaches altitude 10° 01:08:53 10° 252° (WSW) 4,290 10.0 -16.3°
Maximum altitude 01:19:27 33° 195° (SSW) 3,719 9.4 -15.8°
Drops below altitude 10° 01:34:33 10° 141° (SE) 6,127 10.8 -15.0°
Sets 01:40:25 0° 134° (SE) 7,284 11.3 -14.6°
